Location: Bailleul
(50.3375°N, 2.8513°E)
Time: 03:40:19
(UTC+00:00)

Resurs 1-3 - Pass Details

Date: 19 April 2021
Orbit: 629 x 633 km, 97.9° (Epoch: 09 May)

Event Time Altitude Azimuth Distance (km) Brightness Sun altitude
Exits shadow 19:44:04 - 160° (SSE) 2,516 6.2 -8.7°
Reaches altitude 10° 19:45:18 10° 159° (SSE) 2,010 5.7 -8.9°
Maximum altitude 19:49:40 77° 74° (ENE) 654 3.6 -9.5°
Drops below altitude 10° 19:54:05 10° 349° (NNW) 2,024 6.9 -10.1°
Sets 19:56:17 0° 348° (NNW) 2,937 7.8 -10.4°
